| time (UTC) | temp F | wind direction | speed MPH | gust MPH | rain 1hr in | rain 24hr in | rain mn in | humidity % | barometer mb |
| 20260902090008 | 81 | 194 | 0.0 | 0.0 | 0.00 | 0.00 | 0.00 | 70 | 1014.2 |
| 20260902084509 | 81 | 194 | 0.0 | 0.0 | 0.00 | 0.00 | 0.00 | 70 | 1014.2 |
| 20260902083005 | 81 | 194 | 0.0 | 0.0 | 0.00 | 0.00 | 0.00 | 69 | 1014.2 |
| 20260902081505 | 82 | 194 | 0.0 | 0.0 | 0.00 | 0.00 | 0.00 | 68 | 1014.1 |
| 20260902080001 | 82 | 194 | 0.0 | 1.0 | 0.00 | 0.00 | 0.00 | 67 | 1014.1 |
| 20260902074621 | 83 | 228 | 0.0 | 1.0 | 0.00 | 0.00 | 0.00 | 67 | 1014.2 |
| 20260902073109 | 83 | 271 | 0.0 | 4.0 | 0.00 | 0.00 | 0.00 | 66 | 1014.3 |
| 20260902071614 | 83 | 177 | 0.0 | 5.0 | 0.00 | 0.00 | 0.00 | 66 | 1014.2 |
| 20260902070056 | 83 | 170 | 0.0 | 3.0 | 0.00 | 0.00 | 0.00 | 65 | 1014.4 |
| 20260902064559 | 84 | 89 | 0.0 | 3.0 | 0.00 | 0.00 | 0.00 | 65 | 1014.4 |
| 20260902063055 | 84 | 79 | 0.0 | 1.0 | 0.00 | 0.00 | 0.00 | 65 | 1014.4 |
| 20260902061606 | 84 | 223 | 0.0 | 3.0 | 0.00 | 0.00 | 0.00 | 65 | 1014.4 |
| 20260902060052 | 84 | 191 | 0.0 | 3.0 | 0.00 | 0.00 | 0.00 | 65 | 1014.3 |
| 20260902054549 | 85 | 94 | 0.0 | 5.0 | 0.00 | 0.00 | 0.00 | 65 | 1014.3 |
| 20260902053049 | 85 | 152 | 0.0 | 5.0 | 0.00 | 0.00 | 0.00 | 65 | 1014.3 |
| 20260902051546 | 86 | 176 | 1.0 | 5.0 | 0.00 | 0.00 | 0.00 | 64 | 1014.3 |
| 20260902050047 | 86 | 102 | 1.0 | 7.0 | 0.00 | 0.00 | 0.00 | 63 | 1014.2 |
| 20260902044543 | 86 | 176 | 0.0 | 4.0 | 0.00 | 0.00 | 0.00 | 62 | 1014.1 |
| 20260902043042 | 87 | 79 | 1.0 | 6.0 | 0.00 | 0.00 | 0.00 | 61 | 1014.1 |
| 20260902041544 | 87 | 91 | 1.0 | 7.0 | 0.00 | 0.00 | 0.00 | 60 | 1014.1 |
| 20260902040041 | 88 | 162 | 2.0 | 5.0 | 0.00 | 0.00 | 0.00 | 58 | 1014.0 |
| 20260902034642 | 89 | 225 | 2.0 | 7.0 | 0.00 | 0.00 | 0.00 | 56 | 1013.9 |
| 20260902033039 | 90 | 160 | 4.0 | 13.0 | 0.00 | 0.00 | 0.00 | 53 | 1013.7 |
| 20260902031538 | 89 | 109 | 0.0 | 0.0 | 0.00 | 0.00 | 0.00 | 53 | 1013.3 |
| 20260902030038 | 90 | 110 | 0.0 | 0.0 | 0.00 | 0.00 | 0.00 | 52 | 1013.1 |
| 20260902024538 | 90 | 110 | 0.0 | 0.0 | 0.00 | 0.00 | 0.00 | 51 | 1013.0 |
| 20260902023039 | 91 | 110 | 0.0 | 0.0 | 0.00 | 0.00 | 0.00 | 51 | 1012.8 |
| 20260902021536 | 91 | 110 | 0.0 | 2.0 | 0.00 | 0.00 | 0.00 | 50 | 1012.6 |
| 20260902020034 | 91 | 105 | 0.0 | 3.0 | 0.00 | 0.00 | 0.00 | 49 | 1012.5 |
| 20260902014540 | 92 | 115 | 0.0 | 3.0 | 0.00 | 0.00 | 0.00 | 49 | 1012.3 |
| 20260902013033 | 92 | 107 | 0.0 | 4.0 | 0.00 | 0.00 | 0.00 | 48 | 1012.2 |
| 20260902011545 | 93 | 102 | 1.0 | 9.0 | 0.00 | 0.00 | 0.00 | 47 | 1012.0 |
| 20260902010104 | 94 | 102 | 0.0 | 0.0 | 0.00 | 0.00 | 0.00 | 45 | 1012.0 |
| 20260902004531 | 94 | 102 | 0.0 | 2.0 | 0.00 | 0.00 | 0.00 | 44 | 1011.9 |
| 20260902003138 | 95 | 82 | 0.0 | 2.0 | 0.00 | 0.00 | 0.00 | 44 | 1012.0 |
| 20260901233102 | 96 | 89 | 0.0 | 7.0 | 0.00 | 0.00 | 0.00 | 42 | 1012.3 |
| 20260901231558 | 96 | 84 | 1.0 | 4.0 | 0.00 | 0.00 | 0.00 | 42 | 1012.3 |
| 20260901230056 | 96 | 103 | 1.0 | 4.0 | 0.00 | 0.00 | 0.00 | 42 | 1012.4 |
| 20260901224557 | 96 | 143 | 1.0 | 6.0 | 0.00 | 0.00 | 0.00 | 41 | 1012.4 |
| 20260901213012 | 97 | 98 | 1.0 | 6.0 | 0.00 | 0.00 | 0.00 | 41 | 1012.7 |
| 20260901211521 | 96 | 119 | 0.0 | 7.0 | 0.00 | 0.00 | 0.00 | 42 | 1012.9 |
| 20260901210009 | 97 | 114 | 1.0 | 8.0 | 0.00 | 0.00 | 0.00 | 40 | 1013.0 |
| 20260901204513 | 99 | 77 | 1.0 | 3.0 | 0.00 | 0.00 | 0.00 | 40 | 1013.1 |
| 20260901203009 | 99 | 122 | 3.0 | 9.0 | 0.00 | 0.00 | 0.00 | 39 | 1013.2 |
| 20260901201505 | 100 | 210 | 1.0 | 5.0 | 0.00 | 0.00 | 0.00 | 39 | 1013.3 |
| 20260901200004 | 101 | 288 | 0.0 | 0.0 | 0.00 | 0.00 | 0.00 | 38 | 1013.6 |
| 20260901194604 | 98 | 45 | 0.0 | 4.0 | 0.00 | 0.00 | 0.00 | 42 | 1013.7 |
| 20260901193105 | 97 | 120 | 1.0 | 4.0 | 0.00 | 0.00 | 0.00 | 42 | 1014.0 |
| 20260901191557 | 97 | 138 | 1.0 | 6.0 | 0.00 | 0.00 | 0.00 | 41 | 1014.1 |
| 20260901190109 | 98 | 105 | 0.0 | 5.0 | 0.00 | 0.00 | 0.00 | 41 | 1014.4 |
| 20260901184604 | 98 | 108 | 0.0 | 8.0 | 0.00 | 0.00 | 0.00 | 40 | 1014.5 |
| 20260901183053 | 98 | 47 | 0.0 | 4.0 | 0.00 | 0.00 | 0.00 | 41 | 1014.9 |
| 20260901181553 | 98 | 205 | 1.0 | 7.0 | 0.00 | 0.00 | 0.00 | 42 | 1015.2 |
| 20260901180051 | 98 | 111 | 1.0 | 4.0 | 0.00 | 0.00 | 0.00 | 42 | 1015.4 |
| 20260901174601 | 95 | 60 | 0.0 | 3.0 | 0.00 | 0.00 | 0.00 | 46 | 1015.7 |
| 20260901173051 | 94 | 106 | 3.0 | 8.0 | 0.00 | 0.00 | 0.00 | 47 | 1015.9 |
| 20260901171552 | 95 | 282 | 0.0 | 2.0 | 0.00 | 0.00 | 0.00 | 46 | 1016.1 |
| 20260901170145 | 96 | 252 | 1.0 | 6.0 | 0.00 | 0.00 | 0.00 | 46 | 1016.2 |
| 20260901164550 | 96 | 131 | 2.0 | 5.0 | 0.00 | 0.00 | 0.00 | 46 | 1016.3 |
| 20260901163048 | 96 | 165 | 0.0 | 5.0 | 0.00 | 0.00 | 0.00 | 47 | 1016.4 |
| 20260901161555 | 96 | 281 | 0.0 | 3.0 | 0.00 | 0.00 | 0.00 | 47 | 1016.4 |
| 20260901160039 | 93 | 276 | 0.0 | 4.0 | 0.00 | 0.00 | 0.00 | 52 | 1016.4 |
| 20260901154538 | 92 | 258 | 0.0 | 8.0 | 0.00 | 0.00 | 0.00 | 53 | 1016.4 |
| 20260901153044 | 92 | 290 | 1.0 | 6.0 | 0.00 | 0.00 | 0.00 | 53 | 1016.5 |
| 20260901151535 | 92 | 257 | 1.0 | 5.0 | 0.00 | 0.00 | 0.00 | 53 | 1016.3 |
| 20260901150031 | 91 | 153 | 0.0 | 6.0 | 0.00 | 0.00 | 0.00 | 55 | 1016.4 |
| 20260901144529 | 90 | 139 | 1.0 | 6.0 | 0.00 | 0.00 | 0.00 | 57 | 1016.7 |
| 20260901143027 | 90 | 203 | 1.0 | 3.0 | 0.00 | 0.00 | 0.00 | 57 | 1016.8 |
| 20260901141535 | 89 | 274 | 0.0 | 3.0 | 0.00 | 0.00 | 0.00 | 59 | 1016.7 |
| 20260901140028 | 89 | 172 | 0.0 | 2.0 | 0.00 | 0.00 | 0.00 | 61 | 1016.7 |
| 20260901134520 | 87 | 160 | 0.0 | 3.0 | 0.00 | 0.00 | 0.00 | 62 | 1016.7 |
| 20260901133017 | 86 | 224 | 0.0 | 2.0 | 0.00 | 0.00 | 0.00 | 63 | 1016.7 |
| 20260901131523 | 85 | 213 | 0.0 | 0.0 | 0.00 | 0.00 | 0.00 | 65 | 1016.7 |
| 20260901130014 | 83 | 151 | 0.0 | 2.0 | 0.00 | 0.00 | 0.00 | 68 | 1016.5 |
| 20260901124512 | 82 | 206 | 0.0 | 3.0 | 0.00 | 0.00 | 0.00 | 70 | 1016.3 |
| 20260901123010 | 80 | 169 | 0.0 | 2.0 | 0.00 | 0.00 | 0.00 | 72 | 1016.1 |
| 20260901121508 | 79 | 146 | 0.0 | 0.0 | 0.00 | 0.00 | 0.00 | 74 | 1015.9 |
| 20260901120005 | 79 | 146 | 0.0 | 0.0 | 0.00 | 0.00 | 0.00 | 73 | 1015.7 |
| 20260901114504 | 80 | 146 | 0.0 | 0.0 | 0.00 | 0.00 | 0.00 | 72 | 1015.5 |
| 20260901113005 | 80 | 146 | 0.0 | 1.0 | 0.00 | 0.00 | 0.00 | 71 | 1015.4 |
| 20260901111501 | 80 | 147 | 0.0 | 0.0 | 0.00 | 0.00 | 0.00 | 71 | 1015.3 |
| 20260901110111 | 80 | 207 | 0.0 | 0.0 | 0.00 | 0.00 | 0.00 | 71 | 1015.3 |
| 20260901104604 | 80 | 158 | 0.0 | 0.0 | 0.00 | 0.00 | 0.00 | 70 | 1015.2 |
| 20260901103058 | 80 | 158 | 0.0 | 0.0 | 0.00 | 0.00 | 0.00 | 69 | 1015.3 |
| 20260901101606 | 81 | 158 | 0.0 | 0.0 | 0.00 | 0.00 | 0.00 | 67 | 1015.3 |
| 20260901100106 | 81 | 158 | 0.0 | 0.0 | 0.00 | 0.00 | 0.00 | 66 | 1015.3 |
| 20260901094559 | 81 | 151 | 0.0 | 0.0 | 0.00 | 0.00 | 0.00 | 65 | 1015.4 |
| 20260901093052 | 81 | 135 | 0.0 | 0.0 | 0.00 | 0.00 | 0.00 | 65 | 1015.4 |
| 20260901091552 | 81 | 140 | 0.0 | 1.0 | 0.00 | 0.00 | 0.00 | 64 | 1015.4 |